Showing default

QIANFAN-43, 62244

Orbit data source: Space-Track

QIANFAN-43, 62244 is a Chinese payload satellite in LEO that was launched on Thu, 05 Dec 2024 UTC via a CHANG ZHENG 6A launch vehicle from the Taiyaun Space Center, China (TSC). Payloads include a variety of satellites, spacecraft, and rockets equipped with specific instruments for various scientific and technological missions. These include communications satellites like Starlink; space stations such as the ISS; scientific satellites like the Hubble; Earth observation satellites from companies like Planet Labs, Umbra, and HawkEye 360; GPS; miniature CubeSats for education and research; and military/defense satellites.

Loading next visibility...
QIANFAN-43 details
Identifier
62244, 2024-232H
Orbit
LEO
Last TLE update17 hours ago
Origin
Flag of CNYUANX (CN / PRC)
ManufacturerSECM
MissionOperational Commercial Communications
Bus & MotorQIANFAN, Unknown motor
Mass300 kg wet, ~300 kg dry
Launch date (UTC)
2024-12-05 (2 months ago)
Launch vehicle
CHANG ZHENG 6A
Launch site
Taiyaun Space Center, China (TSC)
Object type
Payload
Rocket body
Debris
Shape & HBRBox + 1 Pan, 10 m
Radar Cross Section13.200 m², Large (>1 m²)

Expand to show TLE details & history

TLE from 17 hours ago
0 QIANFAN-43
1 62244U 24232H   25035.55530379  .00000450  00000-0  20302-3 0  9992
2 62244  88.9887  73.0950 0015974  25.3234 334.8736 14.20468618 25693
Epoch: 2025-02-04T13:19Z
Definitive object data (Epoch: 2025-02-04T13:19:38.247Z)
Latitude-0.00001°
Longitude98.22673°
Altitude816.407 km
Speed7.45 km/s
True Right ascension04h 52m 22s
True Declination0° 00' 00"
Sunlit
Object was in daylight at TLE epoch
Visualization TLE readout
Latitude64.04759°
Longitude-83.92425°
Altitude835.498 km
Speed7.441 km/s
Apparent Right ascension19h 15m 20s
Apparent Declination18° 53' 04"
Sunlit
Object is in daylight
Visualization observer readout
Local Sidereal Time08:48:50
Azimuth24.986° NE
Elevation-27.288°
Doppler factor1
Orbital elements
Apogee altitude832.218 km
Perigee altitude809.22 km
Semi-major axis7,198.856 km
Eccentricity0.0015974
Inclination88.9887°
RAAN73.095°
Arg. of periapsis25.3234°
True anomaly334.79573°
Mean anomaly334.8736°
Eccentric anomaly334.83468°
Mean motion3.55343 °/min
BSTAR0.00020302
Orbital period101.31 mins
Loading maneuver chart data...
Loading historical data...
Loading historical data...
Loading historical data...
Loading historical data...
Loading historical data...
Loading historical data...
Loading historical data...

QIANFAN-43 Visibility forecast

Observer location: undefined°, undefined

Span
Click to sort rows by Start time (UTC) header in descending order
Start Az.
Max El. time (UTC)
Max El. Az.
Max El.
End time (UTC)
End Az.
7 mins2025-02-05 13:35:37.003Z37.129° NE2025-02-05 13:38:37.003Z75.912° E20.938°2025-02-05 13:42:37.003Z128.018° SE
8 mins2025-02-05 15:16:37.003Z340.735° N2025-02-05 15:20:37.003Z272.305° WNW33.863°2025-02-05 15:24:37.003Z212.235° SW
9 mins2025-02-06 02:38:37.003Z171.06° S2025-02-06 02:42:37.003Z69.607° E44.328°2025-02-06 02:47:37.003Z2.117° NNE
|